Weather History for KBKL - January, 2013

Change the Weather History Date:

Thursday, January 3, 2013

  Actual Average Record
Temperature  
Mean Temperature 22 °F -  
Max Temperature 28 °F 36 °F 62 °F (2004)
Min Temperature 15 °F 25 °F 10 °F (2014)
Degree Days  
Heating Degree Days 44    
Moisture  
Dew Point 16 °F    
Average Humidity 75    
Maximum Humidity 86    
Minimum Humidity 61    
Precipitation  
Precipitation 0.00 in - - ()
Sea Level Pressure  
Sea Level Pressure 30.17 in    
Wind  
Wind Speed 11 mph (SSW)    
Max Wind Speed 18 mph    
Max Gust Speed 26 mph    
Visibility 9 miles    
Events      
Averages and records for this station are not official NWS values.
T = Trace of Precipitation, MM = Missing Value Source: NWS Daily Summary

Daily Weather History Graph

Daily Weather History Graph

Search for Another Location

Airport or City:

Trip Planner

Search our weather history database for the weather conditions in past years. The results will help you decide how hot, cold, wet, or windy it might be!

Date:

Astronomy

Jan. 03, 2013 Rise Set
Actual Time 7:53 AM EST 5:09 PM EST
Civil Twilight 7:22 AM EST 5:40 PM EST
Nautical Twilight 6:47 AM EST 6:15 PM EST
Astronomical Twilight 6:13 AM EST 6:49 PM EST
Moon 11:49 PM EST (1/3) 10:59 AM EST (1/3)
Length of Visible Light 10h 18m
Length of Day
9h 16m
Waning Gibbous, 65% of the Moon is Illuminated
Jan 3
Waning Gibbous
Jan 4
Last Quarter
Jan 11
New
Jan 18
First Quarter
Jan 26
Full

Hourly Weather History & Observations

Time (EST) Temp. Windchill Dew Point Humidity Pressure Visibility Wind Dir Wind Speed Gust Speed Precip Events Conditions
12:53 AM 21.9 °F 11.0 °F 15.1 °F 75% 30.22 in 10.0 mi SSW 10.4 mph - N/A   Overcast
1:53 AM 19.0 °F 10.0 °F 12.0 °F 74% 30.22 in 10.0 mi SSW 6.9 mph - N/A   Mostly Cloudy
2:31 AM 17.6 °F 8.2 °F 10.4 °F 73% 30.19 in 10.0 mi South 6.9 mph - N/A   Scattered Clouds
2:53 AM 17.1 °F 7.6 °F 10.9 °F 77% 30.22 in 10.0 mi South 6.9 mph - N/A   Clear
3:18 AM 17.6 °F 7.3 °F 10.4 °F 73% 30.19 in 10.0 mi South 8.1 mph - N/A   Mostly Cloudy
3:53 AM 16.0 °F 5.3 °F 10.0 °F 77% 30.22 in 9.0 mi South 8.1 mph - N/A   Scattered Clouds
4:53 AM 15.1 °F 4.2 °F 10.0 °F 80% 30.20 in 8.0 mi SSE 8.1 mph - N/A   Scattered Clouds
5:01 AM 15.8 °F 5.1 °F 10.4 °F 79% 30.17 in 8.0 mi SSE 8.1 mph - N/A   Mostly Cloudy
5:25 AM 15.8 °F 3.4 °F 10.4 °F 79% 30.17 in 8.0 mi SSE 10.4 mph - N/A   Scattered Clouds
5:53 AM 15.1 °F 2.5 °F 9.0 °F 77% 30.20 in 8.0 mi South 10.4 mph - N/A   Clear
6:53 AM 15.1 °F 4.2 °F 9.0 °F 77% 30.19 in 8.0 mi South 8.1 mph - N/A   Scattered Clouds
7:53 AM 15.1 °F 3.3 °F 8.1 °F 74% 30.18 in 8.0 mi SSE 9.2 mph - N/A   Clear
8:53 AM 17.1 °F 5.0 °F 9.0 °F 71% 30.17 in 8.0 mi SSE 10.4 mph - N/A   Overcast
9:53 AM 21.0 °F 8.1 °F 10.9 °F 65% 30.17 in 10.0 mi SSW 13.8 mph - N/A   Overcast
10:53 AM 24.1 °F 13.1 °F 12.9 °F 62% 30.16 in 10.0 mi SSW 11.5 mph - N/A   Overcast
11:53 AM 26.1 °F 14.5 °F 15.1 °F 63% 30.14 in 10.0 mi SW 13.8 mph - N/A   Overcast
12:53 PM 28.0 °F 16.5 °F 16.0 °F 61% 30.11 in 10.0 mi SW 15.0 mph - N/A   Overcast
1:45 PM 28.4 °F 16.2 °F 19.4 °F 69% 30.08 in 10.0 mi SW 17.3 mph - N/A   Overcast
1:53 PM 28.9 °F 16.5 °F 19.9 °F 69% 30.11 in 10.0 mi SW 18.4 mph 24.2 mph N/A   Overcast
2:53 PM 28.9 °F 16.5 °F 21.0 °F 72% 30.12 in 10.0 mi SW 18.4 mph 26.5 mph N/A   Overcast
3:53 PM 28.9 °F 16.9 °F 21.9 °F 75% 30.14 in 10.0 mi SW 17.3 mph - N/A   Overcast
4:53 PM 28.9 °F 17.7 °F 23.0 °F 78% 30.16 in 10.0 mi WSW 15.0 mph - N/A   Overcast
5:53 PM 28.0 °F 15.7 °F 21.9 °F 78% 30.17 in 10.0 mi SW 17.3 mph - N/A   Overcast
6:53 PM 28.0 °F 15.7 °F 21.9 °F 78% 30.18 in 10.0 mi WSW 17.3 mph - N/A   Overcast
7:53 PM 28.0 °F 16.1 °F 21.9 °F 78% 30.19 in 9.0 mi WSW 16.1 mph - N/A   Overcast
8:53 PM 28.0 °F 15.7 °F 23.0 °F 81% 30.19 in 8.0 mi SW 17.3 mph - N/A   Overcast
9:53 PM 28.9 °F 17.7 °F 24.1 °F 82% 30.20 in 9.0 mi WSW 15.0 mph - N/A   Overcast
10:53 PM 28.9 °F 17.3 °F 24.1 °F 82% 30.20 in 8.0 mi WSW 16.1 mph - N/A   Overcast
11:00 PM 28.4 °F 17.0 °F 24.8 °F 86% 30.17 in 8.0 mi WSW 15.0 mph - N/A   Overcast
11:53 PM 28.9 °F 16.9 °F 23.0 °F 78% 30.19 in 9.0 mi WSW 17.3 mph - N/A   Overcast